Location: Columbia
(38.9520°N, 92.3340°W)
Time: 17:03:15
(UTC-05:00)

FENGYUN 3A - Visible Passes

Search period start: 29 July 2015 00:00
Search period end: 08 August 2015 00:00
Orbit: 819 x 834 km, 98.5° (Epoch: 29 July)

Date Brightness Start Highest point End Pass type
(mag) Time Alt. Az. Time Alt. Az. Time Alt. Az.
29 Jul 3.8 21:36:52 10° S 21:42:14 73° WSW 21:47:37 10° NNW visible
30 Jul 3.6 21:18:04 10° SSE 21:23:26 77° ENE 21:28:49 10° N visible
30 Jul 6.2 23:02:08 10° WSW 23:04:23 12° W 23:06:18 10° WNW visible
31 Jul 3.9 20:59:30 10° SSE 21:04:40 51° ENE 21:09:53 10° N visible
31 Jul 5.9 22:41:28 10° SW 22:45:17 19° W 22:48:54 10° NW visible
01 Aug 5.4 22:21:39 10° SSW 22:26:16 28° W 22:30:47 10° NW visible
02 Aug 4.7 22:02:14 10° S 22:07:19 42° W 22:12:22 10° NNW visible
03 Aug 4.0 21:43:06 10° S 21:48:26 63° W 21:53:46 10° NNW visible
04 Aug 3.6 21:24:14 10° SSE 21:29:36 88° ENE 21:35:00 10° NNW visible
04 Aug 6.4 23:10:02 10° W 23:10:42 10° W 23:10:55 10° W visible
05 Aug 3.8 21:05:35 10° SSE 21:10:49 59° ENE 21:16:07 10° N visible
05 Aug 6.1 22:48:11 10° SW 22:51:34 16° W 22:54:42 10° NW visible
06 Aug 4.2 20:47:09 10° SE 20:52:05 40° ENE 20:57:05 10° N visible
06 Aug 5.6 22:28:09 10° SSW 22:32:31 24° W 22:36:46 10° NW visible
07 Aug 5.0 22:08:37 10° SSW 22:13:32 36° W 22:18:26 10° NNW visible
